Regional Weather Roundup
Issued by NWS

Home | Current Version | Previous Version | Graphics & Text | Print | Product List | Glossary On
Versions: 1 2 3 4 5 6 7 8 9 10 11 12 13 14 15 16 17 18 19 20 21 22 23 24 25 26 27 28 29 30 31 32 33 34 35 36 37 38 39 40 41 42 43 44 45 46 47 48 49 50
000
ASUS44 KMEG 280210
RWRTN
TENNESSEE HOURLY STATE WEATHER ROUNDUP
NATIONAL WEATHER SERVICE MEMPHIS TN
800 PM CST SAT DEC 27 2014

TNZ002-004-019-021-049-052-054-088>092-280300-
WEST TENNESSEE

CITY           SKY/WX    TMP DP  RH WIND       PRES   REMARKS
MEMPHIS INTL   LGT RAIN  53  51  93 N12       30.10R VSB 1
NWS MEMPHIS      N/A     52 N/A N/A MISG        N/A
JACKSON        CLOUDY    51  49  92 CALM      30.09F FOG
DYERSBURG      CLOUDY    46  36  66 N15G26    30.16R
UNION CITY     CLOUDY    45  45 100 NW17      30.12R
PARIS          CLOUDY    46  46 100 CALM      30.09F
HUNTINGDON     CLOUDY    48  47  97 CALM      30.11R
LEXINGTON      CLOUDY    48  48 100 CALM      30.09R
SAVANNAH       CLOUDY    52  52 100 S7        30.10S
$$

TNZ008-025-027-028-033-062-065-066-280300-
NORTH MIDDLE TENNESSEE

CITY           SKY/WX    TMP DP  RH WIND       PRES   REMARKS
NASHVILLE      CLOUDY    48  46  93 S12       30.11R
CLARKSVILLE    CLOUDY    49  48  97 CALM      30.10R
SMYRNA         CLOUDY    49  47  93 S8        30.12F
COOKEVILLE     CLOUDY    46  46 100 SE6       30.11F
CROSSVILLE     CLOUDY    52  38  58 S6        30.14F
$$

TNZ061-075-076-078-094-096-097-280300-
SOUTH MIDDLE TENNESSEE

CITY           SKY/WX    TMP DP  RH WIND       PRES   REMARKS
FAYETTEVILLE   CLOUDY    52  45  76 MISG      30.12S
TULLAHOMA      CLOUDY    52  45  76 S9        30.12F
WINCHESTER     CLOUDY    54  45  71 S20       30.12S
MCMINNVILLE    CLOUDY    46  46 100 CALM      30.13F
COLUMBIA       CLOUDY   N/A N/A N/A CALM      30.09S
SHELBYVILLE    CLOUDY    48  48 100 CALM      30.13F
$$

TNZ017-018-042-046-047-280300-
NORTHEAST TENNESSEE

CITY           SKY/WX    TMP DP  RH WIND       PRES   REMARKS
TRI CITIES     CLOUDY    47  39  74 CALM      30.16F
ELIZABETHTON   MOCLDY    46  36  66 CALM      30.15F
$$

TNZ012-013-036-069-073-074-280300-
CENTRAL EAST TENNESSEE

CITY           SKY/WX    TMP DP  RH WIND       PRES   REMARKS
KNOXVILLE      CLOUDY    50  42  74 CALM      30.15F
OAK RIDGE      CLOUDY    51  40  65 CALM      30.17F
GATLINBURG     CLOUDY    46  37  71 CALM      30.15F
MORRISTOWN     MOCLDY    48  41  76 CALM      30.16F
$$

TNZ083-085-099-280300-
SOUTHEAST TENNESSEE

CITY           SKY/WX    TMP DP  RH WIND       PRES   REMARKS
CHATTANOOGA    MOCLDY    53  44  71 S3        30.18S
$$

SKY/WX REPORTED AS FAIR MEANS FEW OR NO CLOUDS BELOW
12 THOUSAND FEET.



USA.gov is the U.S. government's official web portal to all federal, state and local government web resources and services.